CZ-6A DEB, 54615

Orbit data source: Space-Track

CZ-6A DEB, 54615 is space debris in SSO originally from a launch on Fri, 11 Nov 2022 UTC launched from the Taiyaun Space Center, China (TSC). Debris objects in space refer to the collection of defunct objects orbiting the Earth. Examples of debris include non-operational satellites, rocket bodies, and fragments generated from explosions, collisions, or faulty payload assembly.

Loading next visibility...
Identifier
54615, 2022-151NR
Orbit
SSO
Country
Flag of CNCN / PRC
Related business
Manufacturer
SAST
Mission
Spacecraft
Bus & Motor
Unknown
Mass
Unknown
Launch date (UTC)
2022-11-11 (3 years ago)
Launch vehicle
Unknown
Launch site
Taiyaun Space Center, China (TSC)
Object type
Payload
Rocket body
Debris
Shape & HBR
Unknown shape, 0.2 m
Radar Cross Section
Small (<0.1 m²)

Expand to show TLE details & history
Last TLE update: 9 hours ago

TLE from 9 hours ago
0 CZ-6A DEB
1 54615U 22151NR  26130.49950554  .00000638  00000-0  37659-3 0  9995
2 54615  98.8443 128.1260 0056680  69.1429 291.5799 14.10531687178830
Epoch: 2026-05-10T11:59Z
TLE epoch observation values (Epoch: 2026-05-10T11:59:17.278Z)
Latitude
-0.00001°
Longitude
80.0023°
Altitude
845.565 km
Speed
7.438 km/s
True Right ascension
08h 32m 30s
True Declination
0° 00' 00"
Sunlit
Object was in daylight at epoch
Visualization orbit readout
Latitude
Unknown
Longitude
Unknown
Altitude
Unknown
Speed
Unknown
Apparent Right ascension
Unknown
Apparent Declination
Unknown
Sunlit
N/A
Visualization observer readout
Local Sidereal Time
05:29:23
Azimuth
Unknown
Elevation
Unknown
Doppler factor
Unknown
Orbital elements
Apogee altitude
895.726 km
Perigee altitude
813.735 km
Semi-major axis
7,232.867 km
Eccentricity
0.00567
Inclination
98.8443°
RAAN
128.126°
Arg. of periapsis
69.1429°
True anomaly
290.97436°
Mean anomaly
291.5799°
Eccentric anomaly
291.27728°
Mean motion
3.5284 °/min
Orbital period
102.03 mins
BSTAR
0.00037659
Loading maneuver chart data...
Computing Atmospheric mass density...
Loading historical data...
Loading historical data...
Loading historical data...
Loading historical data...
Loading historical data...
Loading historical data...
Loading historical data...

Documentation

Showing up to 5 results
|